Time,TemperatureF,DewpointF,PressureIn,WindDirection,WindDirectionDegrees,WindSpeedMPH,WindSpeedGustMPH,Humidity,HourlyPrecipIn,Conditions,Clouds,dailyrainin,SoftwareType,DateUTC
2013-11-20 00:00:00,34.7,13.4,23.27,WSW,246,0.0,0.0,41,0.00,,---,0.00,VWS V14.00,2013-11-20 07:00:00,
2013-11-20 00:05:00,34.7,13.4,23.27,WSW,246,0.0,0.0,41,0.00,,---,0.00,VWS V14.00,2013-11-20 07:05:00,
2013-11-20 00:10:00,34.3,13.1,23.27,WSW,246,0.0,0.0,41,0.00,,---,0.00,VWS V14.00,2013-11-20 07:10:00,
2013-11-20 00:15:00,34.2,12.9,23.27,WSW,246,0.0,0.0,41,0.00,,---,0.00,VWS V14.00,2013-11-20 07:15:00,
2013-11-20 00:20:00,34.0,12.8,23.27,WSW,246,0.0,0.0,41,0.00,,---,0.00,VWS V14.00,2013-11-20 07:20:00,
2013-11-20 00:25:00,33.8,12.6,23.27,WSW,246,0.0,0.0,41,0.00,,---,0.00,VWS V14.00,2013-11-20 07:25:00,
2013-11-20 00:30:00,33.6,12.4,23.27,WSW,246,0.0,0.0,41,0.00,,---,0.00,VWS V14.00,2013-11-20 07:30:00,
2013-11-20 00:35:00,33.4,12.3,23.27,WSW,246,0.0,0.0,41,0.00,,---,0.00,VWS V14.00,2013-11-20 07:35:00,
2013-11-20 00:40:00,33.3,12.1,23.27,WSW,246,0.0,0.0,41,0.00,,---,0.00,VWS V14.00,2013-11-20 07:40:00,
2013-11-20 00:45:00,33.3,12.1,23.27,WSW,246,0.0,0.0,41,0.00,,---,0.00,VWS V14.00,2013-11-20 07:45:00,
2013-11-20 00:50:00,33.4,12.3,23.27,WSW,246,0.0,0.0,41,0.00,,---,0.00,VWS V14.00,2013-11-20 07:50:00,
2013-11-20 00:55:00,33.6,12.4,23.27,WSW,246,0.0,0.0,41,0.00,,---,0.00,VWS V14.00,2013-11-20 07:55:00,
2013-11-20 01:00:00,33.8,12.6,23.27,WSW,246,0.0,0.0,41,0.00,,---,0.00,VWS V14.00,2013-11-20 08:00:00,
2013-11-20 01:05:00,34.0,12.8,23.27,WSW,246,0.0,0.0,41,0.00,,---,0.00,VWS V14.00,2013-11-20 08:05:00,
2013-11-20 01:10:00,34.2,12.9,23.27,WSW,246,0.0,0.0,41,0.00,,---,0.00,VWS V14.00,2013-11-20 08:10:00,
2013-11-20 01:15:00,34.5,13.3,23.27,WSW,246,0.0,0.0,41,0.00,,---,0.00,VWS V14.00,2013-11-20 08:15:00,
2013-11-20 01:20:00,34.7,13.4,23.27,WSW,246,0.0,0.0,41,0.00,,---,0.00,VWS V14.00,2013-11-20 08:20:00,
2013-11-20 01:25:00,34.7,13.4,23.27,WSW,246,0.0,0.0,41,0.00,,---,0.00,VWS V14.00,2013-11-20 08:25:00,
2013-11-20 01:30:00,34.9,13.6,23.27,WSW,246,0.0,0.0,41,0.00,,---,0.00,VWS V14.00,2013-11-20 08:30:00,
2013-11-20 01:35:00,35.1,13.8,23.27,WSW,246,0.0,0.0,41,0.00,,---,0.00,VWS V14.00,2013-11-20 08:35:00,
2013-11-20 01:40:00,35.2,13.9,23.27,WSW,246,0.0,0.0,41,0.00,,---,0.00,VWS V14.00,2013-11-20 08:40:00,
2013-11-20 01:45:00,35.2,13.9,23.27,WSW,246,0.0,0.0,41,0.00,,---,0.00,VWS V14.00,2013-11-20 08:45:00,
2013-11-20 01:50:00,35.4,14.1,23.27,WSW,246,0.0,0.0,41,0.00,,---,0.00,VWS V14.00,2013-11-20 08:50:00,
2013-11-20 01:55:00,35.4,14.1,23.27,WSW,246,0.0,0.0,41,0.00,,---,0.00,VWS V14.00,2013-11-20 08:55:00,
2013-11-20 02:00:00,35.4,14.1,23.27,WSW,246,0.0,0.0,41,0.00,,---,0.00,VWS V14.00,2013-11-20 09:00:00,
2013-11-20 02:05:00,35.6,14.2,23.27,WSW,246,0.0,0.0,41,0.00,,---,0.00,VWS V14.00,2013-11-20 09:05:00,
2013-11-20 02:10:00,35.6,14.2,23.27,WSW,246,0.0,0.0,41,0.00,,---,0.00,VWS V14.00,2013-11-20 09:10:00,
2013-11-20 02:15:00,35.8,14.4,23.27,WSW,246,0.0,0.0,41,0.00,,---,0.00,VWS V14.00,2013-11-20 09:15:00,
2013-11-20 02:20:00,35.8,14.4,23.27,WSW,246,0.0,0.0,41,0.00,,---,0.00,VWS V14.00,2013-11-20 09:20:00,
2013-11-20 02:26:00,36.0,14.6,23.27,WSW,246,0.0,0.0,41,0.00,,---,0.00,VWS V14.00,2013-11-20 09:26:00,
2013-11-20 02:31:00,36.1,14.7,23.27,WSW,246,0.0,0.0,41,0.00,,---,0.00,VWS V14.00,2013-11-20 09:31:00,
2013-11-20 02:36:00,36.1,14.7,23.27,WSW,246,0.0,0.0,41,0.00,,---,0.00,VWS V14.00,2013-11-20 09:36:00,
2013-11-20 02:41:00,36.3,14.9,23.27,WSW,246,0.0,0.0,41,0.00,,---,0.00,VWS V14.00,2013-11-20 09:41:00,
2013-11-20 02:46:00,36.3,14.9,23.27,WSW,246,0.0,0.0,41,0.00,,---,0.00,VWS V14.00,2013-11-20 09:46:00,
2013-11-20 02:51:00,36.5,15.1,23.27,WSW,246,0.0,0.0,41,0.00,,---,0.00,VWS V14.00,2013-11-20 09:51:00,
2013-11-20 02:56:00,36.7,15.2,23.27,WSW,246,0.0,0.0,41,0.00,,---,0.00,VWS V14.00,2013-11-20 09:56:00,
2013-11-20 03:01:00,36.7,15.2,23.27,WSW,246,0.0,0.0,41,0.00,,---,0.00,VWS V14.00,2013-11-20 10:01:00,
2013-11-20 03:06:00,36.9,15.4,23.27,WSW,246,0.0,0.0,41,0.00,,---,0.00,VWS V14.00,2013-11-20 10:06:00,
2013-11-20 03:11:00,36.9,15.4,23.27,WSW,246,0.0,0.0,41,0.00,,---,0.00,VWS V14.00,2013-11-20 10:11:00,
2013-11-20 03:16:00,36.9,15.4,23.27,WSW,246,0.0,0.0,41,0.00,,---,0.00,VWS V14.00,2013-11-20 10:16:00,
2013-11-20 03:21:00,36.9,15.4,23.27,WSW,246,0.0,0.0,41,0.00,,---,0.00,VWS V14.00,2013-11-20 10:21:00,
2013-11-20 03:26:00,36.9,15.4,23.27,WSW,246,0.0,0.0,41,0.00,,---,0.00,VWS V14.00,2013-11-20 10:26:00,
2013-11-20 03:31:00,37.0,15.5,23.27,WSW,246,0.0,0.0,41,0.00,,---,0.00,VWS V14.00,2013-11-20 10:31:00,
2013-11-20 03:36:00,37.0,15.5,23.27,WSW,246,0.0,0.0,41,0.00,,---,0.00,VWS V14.00,2013-11-20 10:36:00,
2013-11-20 03:41:00,37.0,15.5,23.27,WSW,246,0.0,0.0,41,0.00,,---,0.00,VWS V14.00,2013-11-20 10:41:00,
2013-11-20 03:46:00,37.2,15.7,23.27,WSW,246,0.0,0.0,41,0.00,,---,0.00,VWS V14.00,2013-11-20 10:46:00,
2013-11-20 03:51:00,37.4,15.3,23.27,WSW,246,0.0,0.0,40,0.00,,---,0.00,VWS V14.00,2013-11-20 10:51:00,
2013-11-20 03:56:00,37.4,15.3,23.27,WSW,246,0.0,0.0,40,0.00,,---,0.00,VWS V14.00,2013-11-20 10:56:00,
2013-11-20 04:02:00,37.6,15.5,23.27,WSW,246,0.0,0.0,40,0.00,,---,0.00,VWS V14.00,2013-11-20 11:02:00,
2013-11-20 04:07:00,37.6,15.5,23.24,WSW,246,0.0,0.0,40,0.00,,---,0.00,VWS V14.00,2013-11-20 11:07:00,
2013-11-20 04:12:00,37.8,15.6,23.24,WSW,246,0.0,0.0,40,0.00,,---,0.00,VWS V14.00,2013-11-20 11:12:00,
2013-11-20 04:17:00,37.8,15.6,23.24,WSW,246,0.0,0.0,40,0.00,,---,0.00,VWS V14.00,2013-11-20 11:17:00,
2013-11-20 04:22:00,37.8,15.6,23.24,WSW,246,0.0,0.0,40,0.00,,---,0.00,VWS V14.00,2013-11-20 11:22:00,
2013-11-20 04:27:00,37.8,15.6,23.24,WSW,246,0.0,0.0,40,0.00,,---,0.00,VWS V14.00,2013-11-20 11:27:00,
2013-11-20 04:32:00,37.9,15.8,23.24,WSW,246,0.0,0.0,40,0.00,,---,0.00,VWS V14.00,2013-11-20 11:32:00,
2013-11-20 04:37:00,37.9,15.8,23.24,WSW,246,0.0,0.0,40,0.00,,---,0.00,VWS V14.00,2013-11-20 11:37:00,
2013-11-20 04:42:00,37.9,15.8,23.24,WSW,246,0.0,0.0,40,0.00,,---,0.00,VWS V14.00,2013-11-20 11:42:00,
2013-11-20 04:47:00,37.9,15.8,23.24,WSW,246,0.0,0.0,40,0.00,,---,0.00,VWS V14.00,2013-11-20 11:47:00,
2013-11-20 04:52:00,37.9,15.8,23.24,WSW,246,0.0,0.0,40,0.00,,---,0.00,VWS V14.00,2013-11-20 11:52:00,
2013-11-20 04:58:00,37.9,15.8,23.24,WSW,246,0.0,0.0,40,0.00,,---,0.00,VWS V14.00,2013-11-20 11:58:00,
2013-11-20 05:03:00,37.9,15.8,23.24,WSW,246,0.0,0.0,40,0.00,,---,0.00,VWS V14.00,2013-11-20 12:03:00,
2013-11-20 05:08:00,37.9,15.8,23.24,WSW,246,0.0,0.0,40,0.00,,---,0.00,VWS V14.00,2013-11-20 12:08:00,
2013-11-20 05:13:00,38.1,15.9,23.24,WSW,246,0.0,0.0,40,0.00,,---,0.00,VWS V14.00,2013-11-20 12:13:00,
2013-11-20 05:18:00,38.1,15.9,23.24,WSW,246,0.0,0.0,40,0.00,,---,0.00,VWS V14.00,2013-11-20 12:18:00,
2013-11-20 05:23:00,38.1,15.9,23.24,WSW,246,0.0,0.0,40,0.00,,---,0.00,VWS V14.00,2013-11-20 12:23:00,
2013-11-20 05:28:00,38.5,16.3,23.24,WSW,246,0.0,0.0,40,0.00,,---,0.00,VWS V14.00,2013-11-20 12:28:00,
2013-11-20 05:33:00,38.7,16.4,23.24,WSW,246,0.0,0.0,40,0.00,,---,0.00,VWS V14.00,2013-11-20 12:33:00,
2013-11-20 05:38:00,38.7,16.4,23.24,WSW,246,0.0,0.0,40,0.00,,---,0.00,VWS V14.00,2013-11-20 12:38:00,
2013-11-20 05:43:00,38.8,16.6,23.24,WSW,246,0.0,0.0,40,0.00,,---,0.00,VWS V14.00,2013-11-20 12:43:00,
2013-11-20 05:48:00,38.8,16.6,23.24,WSW,246,0.0,0.0,40,0.00,,---,0.00,VWS V14.00,2013-11-20 12:48:00,
2013-11-20 05:53:00,39.0,16.8,23.24,WSW,246,0.0,0.0,40,0.00,,---,0.00,VWS V14.00,2013-11-20 12:53:00,
2013-11-20 05:58:00,39.2,16.9,23.24,WSW,246,0.0,0.0,40,0.00,,---,0.00,VWS V14.00,2013-11-20 12:58:00,
2013-11-20 06:03:00,39.2,16.9,23.24,WSW,246,0.0,0.0,40,0.00,,---,0.00,VWS V14.00,2013-11-20 13:03:00,
2013-11-20 06:08:00,39.0,16.8,23.24,WSW,246,0.0,0.0,40,0.00,,---,0.00,VWS V14.00,2013-11-20 13:08:00,
2013-11-20 06:13:00,39.0,16.8,23.24,WSW,246,0.0,0.0,40,0.00,,---,0.00,VWS V14.00,2013-11-20 13:13:00,
2013-11-20 06:18:00,39.0,16.8,23.24,WSW,245,0.0,0.0,40,0.00,,---,0.00,VWS V14.00,2013-11-20 13:18:00,
2013-11-20 06:23:00,39.2,16.9,23.24,WSW,246,0.0,0.0,40,0.00,,---,0.00,VWS V14.00,2013-11-20 13:23:00,
2013-11-20 06:28:00,39.2,16.9,23.24,WSW,246,0.0,0.0,40,0.00,,---,0.00,VWS V14.00,2013-11-20 13:28:00,
2013-11-20 06:33:00,39.4,17.1,23.24,WSW,246,0.0,0.0,40,0.00,,---,0.00,VWS V14.00,2013-11-20 13:33:00,
2013-11-20 06:38:00,39.4,17.1,23.24,WSW,246,0.0,0.0,40,0.00,,---,0.00,VWS V14.00,2013-11-20 13:38:00,
2013-11-20 06:43:00,39.6,17.2,23.24,WSW,245,0.0,0.0,40,0.00,,---,0.00,VWS V14.00,2013-11-20 13:43:00,
2013-11-20 06:48:00,39.7,17.4,23.24,WSW,246,0.0,0.0,40,0.00,,---,0.00,VWS V14.00,2013-11-20 13:48:00,
2013-11-20 06:54:00,39.7,17.4,23.24,WSW,249,0.0,0.0,40,0.00,,---,0.00,VWS V14.00,2013-11-20 13:54:00,
2013-11-20 06:59:00,39.7,17.4,23.24,WSW,249,0.0,0.0,40,0.00,,---,0.00,VWS V14.00,2013-11-20 13:59:00,
2013-11-20 07:04:00,39.9,17.6,23.24,WSW,249,0.0,0.0,40,0.00,,---,0.00,VWS V14.00,2013-11-20 14:04:00,
2013-11-20 07:09:00,39.7,17.4,23.24,WSW,249,0.0,0.0,40,0.00,,---,0.00,VWS V14.00,2013-11-20 14:09:00,
2013-11-20 07:32:00,40.1,17.7,23.24,WSW,251,0.0,0.0,40,0.00,,---,0.00,VWS V14.00,2013-11-20 14:32:00,
2013-11-20 07:37:00,40.1,17.7,23.24,WSW,251,0.0,0.0,40,0.00,,---,0.00,VWS V14.00,2013-11-20 14:37:00,
2013-11-20 07:43:00,40.3,17.9,23.24,WSW,251,0.0,0.0,40,0.00,,---,0.00,VWS V14.00,2013-11-20 14:43:00,
2013-11-20 07:48:00,40.5,18.1,23.24,WSW,251,0.0,0.0,40,0.00,,---,0.00,VWS V14.00,2013-11-20 14:48:00,
2013-11-20 07:53:00,40.6,18.2,23.24,WSW,251,0.0,0.0,40,0.00,,---,0.00,VWS V14.00,2013-11-20 14:53:00,
2013-11-20 07:58:00,40.8,18.4,23.24,WSW,251,0.0,0.0,40,0.00,,---,0.00,VWS V14.00,2013-11-20 14:58:00,
2013-11-20 08:03:00,41.0,18.5,23.24,WSW,251,0.0,0.0,40,0.00,,---,0.00,VWS V14.00,2013-11-20 15:03:00,
2013-11-20 08:08:00,41.4,18.9,23.24,West,260,0.0,0.0,40,0.00,,---,0.00,VWS V14.00,2013-11-20 15:08:00,
2013-11-20 08:13:00,41.7,19.2,23.24,West,260,0.0,0.0,40,0.00,,---,0.00,VWS V14.00,2013-11-20 15:13:00,
2013-11-20 08:18:00,41.7,19.2,23.24,WNW,298,0.0,0.0,40,0.00,,---,0.00,VWS V14.00,2013-11-20 15:18:00,
2013-11-20 08:23:00,42.1,19.5,23.24,WNW,303,2.7,2.7,40,0.00,,---,0.00,VWS V14.00,2013-11-20 15:23:00,
2013-11-20 08:28:00,42.1,19.5,23.24,West,275,0.0,2.7,40,0.00,,---,0.00,VWS V14.00,2013-11-20 15:28:00,
2013-11-20 08:33:00,42.3,19.7,23.24,West,266,0.0,0.0,40,0.00,,---,0.00,VWS V14.00,2013-11-20 15:33:00,
2013-11-20 08:38:00,42.4,19.8,23.24,SW,217,0.0,0.0,40,0.00,,---,0.00,VWS V14.00,2013-11-20 15:38:00,
2013-11-20 08:43:00,42.8,19.6,23.24,WSW,251,3.1,3.1,39,0.00,,---,0.00,VWS V14.00,2013-11-20 15:43:00,
2013-11-20 08:48:00,43.0,19.7,23.24,WSW,240,0.0,2.7,39,0.00,,---,0.00,VWS V14.00,2013-11-20 15:48:00,
2013-11-20 08:54:00,43.0,19.7,23.24,West,268,0.0,2.7,39,0.00,,---,0.00,VWS V14.00,2013-11-20 15:54:00,
2013-11-20 08:59:00,43.3,20.1,23.24,WSW,253,4.0,4.0,39,0.00,,---,0.00,VWS V14.00,2013-11-20 15:59:00,
2013-11-20 09:04:00,43.5,20.2,23.24,WSW,238,4.9,5.4,39,0.00,,---,0.00,VWS V14.00,2013-11-20 16:04:00,
2013-11-20 09:09:00,43.7,20.4,23.24,South,185,4.0,5.4,39,0.00,,---,0.00,VWS V14.00,2013-11-20 16:09:00,
2013-11-20 09:14:00,44.2,20.9,23.24,SW,232,0.0,0.0,39,0.00,,---,0.00,VWS V14.00,2013-11-20 16:14:00,
2013-11-20 09:19:00,44.6,20.6,23.24,WSW,246,0.0,2.2,38,0.00,,---,0.00,VWS V14.00,2013-11-20 16:19:00,
2013-11-20 09:24:00,44.6,20.6,23.24,SW,234,0.0,0.0,38,0.00,,---,0.00,VWS V14.00,2013-11-20 16:24:00,
2013-11-20 09:29:00,44.6,20.6,23.24,SSW,202,3.1,3.6,38,0.00,,---,0.00,VWS V14.00,2013-11-20 16:29:00,
2013-11-20 09:34:00,45.0,20.9,23.24,SW,225,5.4,5.4,38,0.00,,---,0.00,VWS V14.00,2013-11-20 16:34:00,
2013-11-20 09:39:00,45.5,21.4,23.24,SW,224,2.2,2.2,38,0.00,,---,0.00,VWS V14.00,2013-11-20 16:39:00,
2013-11-20 09:44:00,45.9,21.7,23.24,SW,223,3.6,4.0,38,0.00,,---,0.00,VWS V14.00,2013-11-20 16:44:00,
2013-11-20 09:49:00,46.0,21.9,23.24,WSW,251,2.7,2.7,38,0.00,,---,0.00,VWS V14.00,2013-11-20 16:49:00,
2013-11-20 09:54:00,46.2,22.0,23.24,SW,235,3.1,4.0,38,0.00,,---,0.00,VWS V14.00,2013-11-20 16:54:00,
2013-11-20 09:59:00,46.6,22.4,23.24,SSE,159,2.7,3.6,38,0.00,,---,0.00,VWS V14.00,2013-11-20 16:59:00,
2013-11-20 10:04:00,46.6,22.4,23.24,SSW,200,0.0,0.0,38,0.00,,---,0.00,VWS V14.00,2013-11-20 17:04:00,
2013-11-20 10:09:00,46.6,21.7,23.24,SSW,208,2.7,3.6,37,0.00,,---,0.00,VWS V14.00,2013-11-20 17:09:00,
2013-11-20 10:14:00,46.8,21.9,23.24,SW,218,2.2,4.9,37,0.00,,---,0.00,VWS V14.00,2013-11-20 17:14:00,
2013-11-20 10:19:00,46.8,21.9,23.24,SW,236,2.7,3.1,37,0.00,,---,0.00,VWS V14.00,2013-11-20 17:19:00,
2013-11-20 10:24:00,46.8,21.9,23.24,SW,231,3.6,4.9,37,0.00,,---,0.00,VWS V14.00,2013-11-20 17:24:00,
2013-11-20 10:29:00,46.8,21.9,23.24,WSW,252,5.4,5.4,37,0.00,,---,0.00,VWS V14.00,2013-11-20 17:29:00,
2013-11-20 10:34:00,46.8,21.9,23.24,SW,222,3.6,4.0,37,0.00,,---,0.00,VWS V14.00,2013-11-20 17:34:00,
2013-11-20 10:39:00,46.9,22.0,23.24,NW,306,0.0,2.7,37,0.00,,---,0.00,VWS V14.00,2013-11-20 17:39:00,
2013-11-20 10:44:00,47.3,22.4,23.24,West,275,3.1,3.1,37,0.00,,---,0.00,VWS V14.00,2013-11-20 17:44:00,
2013-11-20 10:49:00,47.7,22.7,23.24,WSW,257,3.1,3.1,37,0.00,,---,0.00,VWS V14.00,2013-11-20 17:49:00,
2013-11-20 10:54:00,47.8,22.9,23.24,SW,222,4.0,6.3,37,0.00,,---,0.00,VWS V14.00,2013-11-20 17:54:00,
2013-11-20 10:59:00,47.7,22.7,23.24,East,94,2.7,4.0,37,0.00,,---,0.00,VWS V14.00,2013-11-20 17:59:00,
2013-11-20 11:04:00,47.5,22.5,23.24,SSW,201,3.6,5.8,37,0.00,,---,0.00,VWS V14.00,2013-11-20 18:04:00,
2013-11-20 11:09:00,47.5,22.5,23.24,SE,140,4.0,5.4,37,0.00,,---,0.00,VWS V14.00,2013-11-20 18:09:00,
2013-11-20 11:15:00,47.1,22.2,23.24,WSW,237,5.8,5.8,37,0.00,,---,0.00,VWS V14.00,2013-11-20 18:15:00,
2013-11-20 11:20:00,46.4,21.6,23.24,SW,224,3.1,4.9,37,0.00,,---,0.00,VWS V14.00,2013-11-20 18:20:00,
2013-11-20 11:25:00,45.9,21.7,23.24,SSW,208,3.1,4.0,38,0.00,,---,0.00,VWS V14.00,2013-11-20 18:25:00,
2013-11-20 11:30:00,45.9,21.7,23.24,SSW,209,8.1,8.1,38,0.00,,---,0.00,VWS V14.00,2013-11-20 18:30:00,
2013-11-20 11:35:00,46.0,21.9,23.24,SE,146,2.2,3.1,38,0.00,,---,0.00,VWS V14.00,2013-11-20 18:35:00,
2013-11-20 11:40:00,46.2,22.0,23.24,SW,223,2.7,2.7,38,0.00,,---,0.00,VWS V14.00,2013-11-20 18:40:00,
2013-11-20 11:45:00,45.9,21.7,23.24,WSW,237,5.4,5.4,38,0.00,,---,0.00,VWS V14.00,2013-11-20 18:45:00,
2013-11-20 11:50:00,45.3,21.2,23.24,West,261,4.0,4.0,38,0.00,,---,0.00,VWS V14.00,2013-11-20 18:50:00,
2013-11-20 11:55:00,44.8,20.7,23.24,WNW,295,2.7,5.4,38,0.00,,---,0.00,VWS V14.00,2013-11-20 18:55:00,
2013-11-20 12:00:00,44.2,20.3,23.24,West,263,2.2,2.2,38,0.00,,---,0.00,VWS V14.00,2013-11-20 19:00:00,
2013-11-20 12:05:00,43.7,19.8,23.24,NW,311,4.0,4.0,38,0.00,,---,0.00,VWS V14.00,2013-11-20 19:05:00,
2013-11-20 12:10:00,43.2,19.3,23.24,West,265,5.8,5.8,38,0.00,,---,0.00,VWS V14.00,2013-11-20 19:10:00,
2013-11-20 12:15:00,42.8,19.0,23.24,WSW,250,5.4,5.4,38,0.00,,---,0.00,VWS V14.00,2013-11-20 19:15:00,
2013-11-20 12:20:00,42.3,19.1,23.24,WSW,253,4.0,4.9,39,0.00,,---,0.00,VWS V14.00,2013-11-20 19:20:00,
2013-11-20 12:25:00,41.7,18.6,23.24,NNW,341,4.0,4.0,39,0.00,,---,0.00,VWS V14.00,2013-11-20 19:25:00,
2013-11-20 12:30:00,41.2,18.1,23.24,SW,221,2.7,3.1,39,0.00,,---,0.00,VWS V14.00,2013-11-20 19:30:00,
2013-11-20 12:35:00,41.0,18.0,23.21,SSW,192,2.7,4.0,39,0.00,,---,0.00,VWS V14.00,2013-11-20 19:35:00,
2013-11-20 12:40:00,40.8,18.4,23.21,WSW,246,3.1,3.1,40,0.00,,---,0.00,VWS V14.00,2013-11-20 19:40:00,
2013-11-20 12:45:00,40.6,18.2,23.21,West,259,5.4,5.4,40,0.00,,---,0.00,VWS V14.00,2013-11-20 19:45:00,
2013-11-20 12:50:00,40.6,18.2,23.21,SW,226,2.7,5.8,40,0.00,,---,0.00,VWS V14.00,2013-11-20 19:50:00,
2013-11-20 12:55:00,40.5,18.1,23.21,SW,233,0.0,3.6,40,0.00,,---,0.00,VWS V14.00,2013-11-20 19:55:00,
2013-11-20 13:00:00,40.6,18.2,23.21,WSW,246,2.7,4.0,40,0.00,,---,0.00,VWS V14.00,2013-11-20 20:00:00,
2013-11-20 13:05:00,40.5,18.1,23.21,WSW,245,0.0,0.0,40,0.00,,---,0.00,VWS V14.00,2013-11-20 20:05:00,
2013-11-20 13:10:00,40.5,18.1,23.21,WNW,294,3.6,3.6,40,0.00,,---,0.00,VWS V14.00,2013-11-20 20:10:00,
2013-11-20 13:15:00,40.5,18.1,23.21,WSW,252,6.3,6.3,40,0.00,,---,0.00,VWS V14.00,2013-11-20 20:15:00,
2013-11-20 13:20:00,40.5,18.1,23.21,WSW,251,4.0,5.8,40,0.00,,---,0.00,VWS V14.00,2013-11-20 20:20:00,
2013-11-20 13:25:00,40.5,18.1,23.21,SSW,213,2.7,3.1,40,0.00,,---,0.00,VWS V14.00,2013-11-20 20:25:00,
2013-11-20 13:30:00,40.5,18.1,23.21,West,272,4.0,4.9,40,0.00,,---,0.00,VWS V14.00,2013-11-20 20:30:00,
2013-11-20 13:36:00,40.3,17.9,23.21,WSW,254,3.6,5.4,40,0.00,,---,0.00,VWS V14.00,2013-11-20 20:36:00,
2013-11-20 13:41:00,40.3,17.9,23.21,West,271,2.7,3.6,40,0.00,,---,0.00,VWS V14.00,2013-11-20 20:41:00,
2013-11-20 13:46:00,40.3,18.5,23.21,West,270,5.4,5.4,41,0.00,,---,0.00,VWS V14.00,2013-11-20 20:46:00,
2013-11-20 13:51:00,40.3,18.5,23.21,NW,313,4.0,4.0,41,0.00,,---,0.00,VWS V14.00,2013-11-20 20:51:00,
2013-11-20 13:56:00,40.3,18.5,23.21,WSW,247,2.7,3.1,41,0.00,,---,0.00,VWS V14.00,2013-11-20 20:56:00,
2013-11-20 14:01:00,40.5,18.6,23.21,West,260,3.6,4.0,41,0.00,,---,0.00,VWS V14.00,2013-11-20 21:01:00,
2013-11-20 14:06:00,40.5,18.6,23.21,WNW,294,3.6,6.3,41,0.00,,---,0.00,VWS V14.00,2013-11-20 21:06:00,
2013-11-20 14:11:00,40.5,18.6,23.21,West,273,2.2,3.6,41,0.00,,---,0.00,VWS V14.00,2013-11-20 21:11:00,
2013-11-20 14:16:00,40.5,18.6,23.21,West,271,0.0,4.9,41,0.00,,---,0.00,VWS V14.00,2013-11-20 21:16:00,
2013-11-20 14:21:00,40.3,18.5,23.21,West,280,3.1,6.3,41,0.00,,---,0.00,VWS V14.00,2013-11-20 21:21:00,
2013-11-20 14:26:00,40.3,18.5,23.21,WSW,252,2.2,2.2,41,0.00,,---,0.00,VWS V14.00,2013-11-20 21:26:00,
2013-11-20 14:31:00,40.5,18.6,23.21,SW,230,2.2,2.2,41,0.00,,---,0.00,VWS V14.00,2013-11-20 21:31:00,
2013-11-20 14:36:00,40.5,18.6,23.18,WNW,300,3.6,4.0,41,0.00,,---,0.00,VWS V14.00,2013-11-20 21:36:00,
2013-11-20 14:41:00,40.5,18.6,23.18,NW,311,3.1,3.1,41,0.00,,---,0.00,VWS V14.00,2013-11-20 21:41:00,
2013-11-20 14:46:00,40.6,19.4,23.18,NW,307,2.7,4.0,42,0.00,,---,0.00,VWS V14.00,2013-11-20 21:46:00,
2013-11-20 14:51:00,40.6,19.4,23.18,WSW,238,3.1,3.1,42,0.00,,---,0.00,VWS V14.00,2013-11-20 21:51:00,
2013-11-20 14:56:00,40.8,19.5,23.18,WNW,290,0.0,0.0,42,0.00,,---,0.00,VWS V14.00,2013-11-20 21:56:00,
2013-11-20 15:01:00,41.0,19.1,23.18,SW,220,2.7,3.6,41,0.00,,---,0.00,VWS V14.00,2013-11-20 22:01:00,
2013-11-20 15:06:00,41.0,19.1,23.18,WSW,237,2.2,2.7,41,0.00,,---,0.00,VWS V14.00,2013-11-20 22:06:00,
2013-11-20 15:11:00,41.2,19.3,23.18,West,278,0.0,2.7,41,0.00,,---,0.00,VWS V14.00,2013-11-20 22:11:00,
2013-11-20 15:16:00,41.5,19.6,23.18,SW,232,2.2,3.6,41,0.00,,---,0.00,VWS V14.00,2013-11-20 22:16:00,
2013-11-20 15:21:00,41.5,19.6,23.18,NW,316,3.6,3.6,41,0.00,,---,0.00,VWS V14.00,2013-11-20 22:21:00,
2013-11-20 15:26:00,41.5,19.6,23.18,SW,228,3.1,3.6,41,0.00,,---,0.00,VWS V14.00,2013-11-20 22:26:00,
2013-11-20 15:31:00,41.5,19.6,23.18,SW,226,4.0,4.0,41,0.00,,---,0.00,VWS V14.00,2013-11-20 22:31:00,
2013-11-20 15:36:00,41.5,19.6,23.18,West,265,2.7,7.6,41,0.00,,---,0.00,VWS V14.00,2013-11-20 22:36:00,
2013-11-20 15:41:00,41.5,19.6,23.18,West,260,3.6,4.5,41,0.00,,---,0.00,VWS V14.00,2013-11-20 22:41:00,
2013-11-20 15:46:00,41.5,19.6,23.18,WNW,284,3.1,3.1,41,0.00,,---,0.00,VWS V14.00,2013-11-20 22:46:00,
2013-11-20 15:51:00,41.5,19.6,23.21,SW,236,3.1,3.1,41,0.00,,---,0.00,VWS V14.00,2013-11-20 22:51:00,
2013-11-20 15:56:00,41.7,19.8,23.21,SSW,207,0.0,4.0,41,0.00,,---,0.00,VWS V14.00,2013-11-20 22:56:00,
2013-11-20 16:02:00,41.7,19.8,23.21,SW,218,5.4,5.4,41,0.00,,---,0.00,VWS V14.00,2013-11-20 23:02:00,
2013-11-20 16:07:00,41.7,19.8,23.21,South,191,0.0,3.1,41,0.00,,---,0.00,VWS V14.00,2013-11-20 23:07:00,
2013-11-20 16:12:00,41.9,19.9,23.21,NW,310,3.1,4.0,41,0.00,,---,0.00,VWS V14.00,2013-11-20 23:12:00,
2013-11-20 16:17:00,41.9,19.9,23.21,SW,231,0.0,3.1,41,0.00,,---,0.00,VWS V14.00,2013-11-20 23:17:00,
2013-11-20 16:22:00,41.9,19.9,23.21,WSW,246,0.0,2.2,41,0.00,,---,0.00,VWS V14.00,2013-11-20 23:22:00,
2013-11-20 16:27:00,41.9,19.9,23.21,SSW,206,2.7,2.7,41,0.00,,---,0.00,VWS V14.00,2013-11-20 23:27:00,
2013-11-20 16:32:00,41.7,19.8,23.21,NNW,345,2.2,3.1,41,0.00,,---,0.00,VWS V14.00,2013-11-20 23:32:00,
2013-11-20 16:37:00,41.7,19.8,23.21,SW,227,2.2,2.7,41,0.00,,---,0.00,VWS V14.00,2013-11-20 23:37:00,
2013-11-20 16:42:00,41.5,19.6,23.21,SW,225,3.6,3.6,41,0.00,,---,0.00,VWS V14.00,2013-11-20 23:42:00,
2013-11-20 16:47:00,41.4,18.9,23.21,West,265,3.1,3.1,40,0.00,,---,0.00,VWS V14.00,2013-11-20 23:47:00,
2013-11-20 16:52:00,41.4,18.9,23.21,WSW,257,0.0,0.0,40,0.00,,---,0.00,VWS V14.00,2013-11-20 23:52:00,
2013-11-20 16:57:00,41.2,18.7,23.21,SW,215,0.0,0.0,40,0.00,,---,0.00,VWS V14.00,2013-11-20 23:57:00,
2013-11-20 17:02:00,41.2,18.7,23.21,WNW,293,4.0,4.0,40,0.00,,---,0.00,VWS V14.00,2013-11-21 00:02:00,
2013-11-20 17:07:00,41.0,18.5,23.21,WSW,241,0.0,0.0,40,0.00,,---,0.00,VWS V14.00,2013-11-21 00:07:00,
2013-11-20 17:12:00,41.0,18.5,23.21,West,279,0.0,0.0,40,0.00,,---,0.00,VWS V14.00,2013-11-21 00:12:00,
2013-11-20 17:17:00,40.8,19.0,23.21,WSW,258,0.0,0.0,41,0.00,,---,0.00,VWS V14.00,2013-11-21 00:17:00,
2013-11-20 17:22:00,40.8,19.0,23.21,West,262,0.0,0.0,41,0.00,,---,0.00,VWS V14.00,2013-11-21 00:22:00,
2013-11-20 17:27:00,40.8,19.0,23.21,West,261,0.0,0.0,41,0.00,,---,0.00,VWS V14.00,2013-11-21 00:27:00,
2013-11-20 17:32:00,40.6,18.8,23.21,WNW,292,0.0,0.0,41,0.00,,---,0.00,VWS V14.00,2013-11-21 00:32:00,
2013-11-20 17:37:00,40.6,18.8,23.21,West,276,0.0,0.0,41,0.00,,---,0.00,VWS V14.00,2013-11-21 00:37:00,
2013-11-20 17:42:00,40.6,18.8,23.21,West,265,0.0,3.1,41,0.00,,---,0.00,VWS V14.00,2013-11-21 00:42:00,
2013-11-20 17:48:00,40.6,18.8,23.21,WSW,249,2.7,3.6,41,0.00,,---,0.00,VWS V14.00,2013-11-21 00:48:00,
2013-11-20 17:53:00,40.5,18.6,23.21,West,277,0.0,0.0,41,0.00,,---,0.00,VWS V14.00,2013-11-21 00:53:00,
2013-11-20 17:58:00,40.5,18.6,23.21,SW,227,0.0,3.1,41,0.00,,---,0.00,VWS V14.00,2013-11-21 00:58:00,
2013-11-20 18:03:00,40.5,18.6,23.21,WSW,249,2.7,2.7,41,0.00,,---,0.00,VWS V14.00,2013-11-21 01:03:00,
2013-11-20 18:08:00,40.5,18.6,23.21,West,268,0.0,0.0,41,0.00,,---,0.00,VWS V14.00,2013-11-21 01:08:00,
2013-11-20 18:13:00,40.5,18.6,23.21,WNW,284,3.1,3.1,41,0.00,,---,0.00,VWS V14.00,2013-11-21 01:13:00,
2013-11-20 18:18:00,40.5,18.6,23.21,West,279,0.0,0.0,41,0.00,,---,0.00,VWS V14.00,2013-11-21 01:18:00,
2013-11-20 18:23:00,40.5,18.6,23.24,SW,222,3.6,4.0,41,0.00,,---,0.00,VWS V14.00,2013-11-21 01:23:00,
2013-11-20 18:28:00,40.5,18.6,23.24,SW,232,2.7,2.7,41,0.00,,---,0.00,VWS V14.00,2013-11-21 01:28:00,
2013-11-20 18:33:00,40.5,18.6,23.24,West,276,0.0,0.0,41,0.00,,---,0.00,VWS V14.00,2013-11-21 01:33:00,
2013-11-20 18:38:00,40.5,18.6,23.24,WNW,291,2.7,2.7,41,0.00,,---,0.00,VWS V14.00,2013-11-21 01:38:00,
2013-11-20 18:43:00,40.5,18.6,23.24,SW,225,2.2,2.2,41,0.00,,---,0.00,VWS V14.00,2013-11-21 01:43:00,
2013-11-20 18:48:00,40.5,18.6,23.24,West,272,0.0,0.0,41,0.00,,---,0.00,VWS V14.00,2013-11-21 01:48:00,
2013-11-20 18:53:00,40.5,18.6,23.24,SW,223,0.0,0.0,41,0.00,,---,0.00,VWS V14.00,2013-11-21 01:53:00,
2013-11-20 18:58:00,40.5,18.6,23.24,West,274,0.0,0.0,41,0.00,,---,0.00,VWS V14.00,2013-11-21 01:58:00,
2013-11-20 19:03:00,40.5,19.2,23.24,West,279,0.0,2.7,42,0.00,,---,0.00,VWS V14.00,2013-11-21 02:03:00,
2013-11-20 19:08:00,40.5,19.2,23.24,West,281,0.0,0.0,42,0.00,,---,0.00,VWS V14.00,2013-11-21 02:08:00,
2013-11-20 19:13:00,40.5,19.2,23.24,WNW,282,0.0,2.2,42,0.00,,---,0.00,VWS V14.00,2013-11-21 02:13:00,
2013-11-20 19:18:00,40.5,19.2,23.24,WSW,239,2.7,4.9,42,0.00,,---,0.00,VWS V14.00,2013-11-21 02:18:00,
2013-11-20 19:23:00,40.5,19.2,23.24,WNW,286,0.0,0.0,42,0.00,,---,0.00,VWS V14.00,2013-11-21 02:23:00,
2013-11-20 19:28:00,40.5,19.2,23.24,WSW,246,0.0,0.0,42,0.00,,---,0.00,VWS V14.00,2013-11-21 02:28:00,
2013-11-20 19:33:00,40.5,19.2,23.24,West,270,0.0,4.9,42,0.00,,---,0.00,VWS V14.00,2013-11-21 02:33:00,
2013-11-20 19:38:00,40.5,19.2,23.24,SW,230,0.0,2.2,42,0.00,,---,0.00,VWS V14.00,2013-11-21 02:38:00,
2013-11-20 19:43:00,40.5,19.2,23.24,WNW,295,2.7,2.7,42,0.00,,---,0.00,VWS V14.00,2013-11-21 02:43:00,
2013-11-20 19:48:00,40.3,19.0,23.24,West,281,0.0,0.0,42,0.00,,---,0.00,VWS V14.00,2013-11-21 02:48:00,
2013-11-20 19:53:00,40.3,19.0,23.24,WNW,291,0.0,0.0,42,0.00,,---,0.00,VWS V14.00,2013-11-21 02:53:00,
2013-11-20 19:58:00,40.3,19.0,23.24,WNW,294,0.0,3.1,42,0.00,,---,0.00,VWS V14.00,2013-11-21 02:58:00,
2013-11-20 20:04:00,40.3,19.0,23.24,WNW,294,0.0,0.0,42,0.00,,---,0.00,VWS V14.00,2013-11-21 03:04:00,
2013-11-20 20:09:00,40.3,19.0,23.24,WNW,294,0.0,0.0,42,0.00,,---,0.00,VWS V14.00,2013-11-21 03:09:00,
2013-11-20 20:14:00,40.3,19.0,23.24,WNW,294,0.0,0.0,42,0.00,,---,0.00,VWS V14.00,2013-11-21 03:14:00,
2013-11-20 20:19:00,40.5,19.2,23.24,WNW,294,0.0,0.0,42,0.00,,---,0.00,VWS V14.00,2013-11-21 03:19:00,
2013-11-20 20:24:00,40.5,19.2,23.24,WNW,294,0.0,0.0,42,0.00,,---,0.00,VWS V14.00,2013-11-21 03:24:00,
2013-11-20 20:29:00,40.5,19.2,23.24,WNW,294,0.0,0.0,42,0.00,,---,0.00,VWS V14.00,2013-11-21 03:29:00,
2013-11-20 20:34:00,40.5,19.2,23.24,WNW,294,0.0,0.0,42,0.00,,---,0.00,VWS V14.00,2013-11-21 03:34:00,
2013-11-20 20:39:00,40.5,19.7,23.24,WNW,294,0.0,0.0,43,0.00,,---,0.00,VWS V14.00,2013-11-21 03:39:00,
2013-11-20 20:44:00,40.5,19.7,23.24,WNW,294,0.0,0.0,43,0.00,,---,0.00,VWS V14.00,2013-11-21 03:44:00,
2013-11-20 20:49:00,40.5,19.7,23.24,WNW,294,0.0,0.0,43,0.00,,---,0.00,VWS V14.00,2013-11-21 03:49:00,
2013-11-20 20:54:00,40.5,19.7,23.24,WNW,294,0.0,0.0,43,0.00,,---,0.00,VWS V14.00,2013-11-21 03:54:00,
2013-11-20 20:59:00,40.5,19.7,23.24,WNW,294,0.0,0.0,43,0.00,,---,0.00,VWS V14.00,2013-11-21 03:59:00,
2013-11-20 21:04:00,40.3,19.6,23.24,WNW,294,0.0,0.0,43,0.00,,---,0.00,VWS V14.00,2013-11-21 04:04:00,
2013-11-20 21:09:00,40.5,19.7,23.24,WNW,294,0.0,0.0,43,0.00,,---,0.00,VWS V14.00,2013-11-21 04:09:00,
2013-11-20 21:14:00,40.5,19.7,23.24,WNW,294,0.0,0.0,43,0.00,,---,0.00,VWS V14.00,2013-11-21 04:14:00,
2013-11-20 21:19:00,40.5,19.7,23.24,WNW,294,0.0,0.0,43,0.00,,---,0.00,VWS V14.00,2013-11-21 04:19:00,
2013-11-20 21:24:00,40.5,19.7,23.24,WNW,294,0.0,0.0,43,0.00,,---,0.00,VWS V14.00,2013-11-21 04:24:00,
2013-11-20 21:29:00,40.5,19.7,23.24,WNW,294,0.0,0.0,43,0.00,,---,0.00,VWS V14.00,2013-11-21 04:29:00,
2013-11-20 21:34:00,40.5,19.7,23.24,WNW,294,0.0,0.0,43,0.00,,---,0.00,VWS V14.00,2013-11-21 04:34:00,
2013-11-20 21:39:00,40.5,19.7,23.24,WSW,247,5.8,5.8,43,0.00,,---,0.00,VWS V14.00,2013-11-21 04:39:00,
2013-11-20 21:44:00,40.5,19.7,23.24,WSW,244,0.0,0.0,43,0.00,,---,0.00,VWS V14.00,2013-11-21 04:44:00,
2013-11-20 21:49:00,40.5,19.7,23.24,West,271,0.0,0.0,43,0.00,,---,0.00,VWS V14.00,2013-11-21 04:49:00,
2013-11-20 21:54:00,40.6,19.9,23.24,West,271,0.0,0.0,43,0.00,,---,0.00,VWS V14.00,2013-11-21 04:54:00,
2013-11-20 21:59:00,40.6,19.9,23.24,West,267,0.0,0.0,43,0.00,,---,0.00,VWS V14.00,2013-11-21 04:59:00,
2013-11-20 22:01:00,40.6,19.9,23.24,WSW,245,0.0,0.0,43,0.00,,---,0.00,VWS V14.00,2013-11-21 05:01:00,
2013-11-20 22:02:00,40.6,19.9,23.24,WSW,245,0.0,0.0,43,0.00,,---,0.00,VWS V14.00,2013-11-21 05:02:00,
2013-11-20 22:04:00,40.6,19.9,23.24,SW,231,3.1,3.6,43,0.00,,---,0.00,VWS V14.00,2013-11-21 05:04:00,
2013-11-20 22:09:00,40.6,19.9,23.24,SW,231,0.0,0.0,43,0.00,,---,0.00,VWS V14.00,2013-11-21 05:09:00,
2013-11-20 22:14:00,40.6,19.9,23.24,SW,231,0.0,0.0,43,0.00,,---,0.00,VWS V14.00,2013-11-21 05:14:00,
2013-11-20 22:19:00,40.6,19.9,23.24,SW,231,0.0,0.0,43,0.00,,---,0.00,VWS V14.00,2013-11-21 05:19:00,
2013-11-20 22:24:00,40.6,19.9,23.24,SW,231,0.0,0.0,43,0.00,,---,0.00,VWS V14.00,2013-11-21 05:24:00,
2013-11-20 22:29:00,40.6,19.9,23.24,SW,231,0.0,0.0,43,0.00,,---,0.00,VWS V14.00,2013-11-21 05:29:00,
2013-11-20 22:34:00,40.6,20.5,23.24,SW,231,0.0,0.0,44,0.00,,---,0.00,VWS V14.00,2013-11-21 05:34:00,
2013-11-20 22:39:00,40.6,20.5,23.24,SW,231,0.0,0.0,44,0.00,,---,0.00,VWS V14.00,2013-11-21 05:39:00,
2013-11-20 22:44:00,40.6,20.5,23.24,West,264,0.0,0.0,44,0.00,,---,0.00,VWS V14.00,2013-11-21 05:44:00,
2013-11-20 22:49:00,40.6,20.5,23.24,West,264,0.0,0.0,44,0.00,,---,0.00,VWS V14.00,2013-11-21 05:49:00,
2013-11-20 22:54:00,40.6,20.5,23.24,SW,233,0.0,0.0,44,0.00,,---,0.00,VWS V14.00,2013-11-21 05:54:00,
2013-11-20 22:59:00,40.5,20.3,23.24,SW,231,0.0,0.0,44,0.00,,---,0.00,VWS V14.00,2013-11-21 05:59:00,
2013-11-20 23:01:00,40.5,20.3,23.24,SW,231,0.0,0.0,44,0.00,,---,0.00,VWS V14.00,2013-11-21 06:01:00,
2013-11-20 23:06:00,40.6,20.5,23.24,SW,232,0.0,0.0,44,0.00,,---,0.00,VWS V14.00,2013-11-21 06:06:00,
2013-11-20 23:11:00,40.6,20.5,23.24,SW,232,0.0,0.0,44,0.00,,---,0.00,VWS V14.00,2013-11-21 06:11:00,
2013-11-20 23:16:00,40.6,20.5,23.24,WSW,240,0.0,0.0,44,0.00,,---,0.00,VWS V14.00,2013-11-21 06:16:00,
2013-11-20 23:21:00,40.6,20.5,23.24,WSW,238,0.0,0.0,44,0.00,,---,0.00,VWS V14.00,2013-11-21 06:21:00,
2013-11-20 23:27:00,40.6,20.5,23.24,WSW,238,0.0,0.0,44,0.00,,---,0.00,VWS V14.00,2013-11-21 06:27:00,
2013-11-20 23:32:00,40.5,20.3,23.24,WSW,238,3.1,3.1,44,0.00,,---,0.00,VWS V14.00,2013-11-21 06:32:00,
2013-11-20 23:37:00,40.5,20.3,23.24,SW,227,0.0,2.7,44,0.00,,---,0.00,VWS V14.00,2013-11-21 06:37:00,
2013-11-20 23:42:00,40.5,20.3,23.24,SW,226,2.7,2.7,44,0.00,,---,0.00,VWS V14.00,2013-11-21 06:42:00,
2013-11-20 23:47:00,40.5,20.3,23.24,West,266,2.2,4.0,44,0.00,,---,0.00,VWS V14.00,2013-11-21 06:47:00,
2013-11-20 23:52:00,40.3,20.1,23.24,WSW,254,3.6,4.0,44,0.00,,---,0.00,VWS V14.00,2013-11-21 06:52:00,
2013-11-20 23:57:00,40.3,20.1,23.24,SW,232,2.7,2.7,44,0.00,,---,0.00,VWS V14.00,2013-11-21 06:57:00,